Weather History for KADG - January, 2013

Change the Weather History Date:

Tuesday, January 8, 2013

  Actual Average Record
Temperature  
Mean Temperature 26 °F -  
Max Temperature 34 °F 28 °F 61 °F (1965)
Min Temperature 19 °F 10 °F -18 °F (1981)
Degree Days  
Heating Degree Days 38    
Moisture  
Dew Point 21 °F    
Average Humidity 84    
Maximum Humidity 93    
Minimum Humidity 73    
Precipitation  
Precipitation 0.00 in - - ()
Sea Level Pressure  
Sea Level Pressure 30.25 in    
Wind  
Wind Speed 6 mph (SW)    
Max Wind Speed 10 mph    
Max Gust Speed -    
Visibility 5 miles    
Events      
Averages and records for this station are not official NWS values.
T = Trace of Precipitation, MM = Missing Value Source: NWS Daily Summary

Daily Weather History Graph

Daily Weather History Graph

Search for Another Location

Airport or City:

Trip Planner

Search our weather history database for the weather conditions in past years. The results will help you decide how hot, cold, wet, or windy it might be!

Date:

Astronomy

Jan. 08, 2013 Rise Set
Actual Time 8:03 AM EST 5:23 PM EST
Civil Twilight 7:32 AM EST 5:54 PM EST
Nautical Twilight 6:57 AM EST 6:28 PM EST
Astronomical Twilight 6:24 AM EST 7:02 PM EST
Moon 4:35 AM EST (1/8) 2:24 PM EST (1/8)
Length of Visible Light 10h 21m
Length of Day
9h 19m
Waning Crescent, 14% of the Moon is Illuminated
Jan 8
Waning Crescent
Jan 11
New
Jan 18
First Quarter
Jan 26
Full
Feb 3
Last Quarter

Hourly Weather History & Observations

Time (EST) Temp. Windchill Dew Point Humidity Pressure Visibility Wind Dir Wind Speed Gust Speed Precip Events Conditions
12:53 AM 25.0 °F 17.1 °F 19.9 °F 81% 30.22 in 7.0 mi West 6.9 mph - N/A   Clear
1:53 AM 24.1 °F 17.0 °F 19.9 °F 84% 30.22 in 6.0 mi WSW 5.8 mph - N/A   Clear
2:53 AM 21.9 °F 12.5 °F 19.0 °F 89% 30.23 in 6.0 mi SW 8.1 mph - N/A   Clear
3:53 AM 21.9 °F 11.7 °F 18.0 °F 85% 30.22 in 5.0 mi SW 9.2 mph - N/A   Clear
4:53 AM 21.0 °F 14.6 °F 18.0 °F 88% 30.23 in 5.0 mi WSW 4.6 mph - N/A   Clear
5:53 AM 21.0 °F 13.4 °F 18.0 °F 88% 30.23 in 5.0 mi WSW 5.8 mph - N/A   Clear
6:53 AM 19.9 °F 11.1 °F 17.1 °F 89% 30.24 in 4.0 mi SW 6.9 mph - N/A   Clear
7:53 AM 21.0 °F 13.4 °F 18.0 °F 88% 30.26 in 4.0 mi SW 5.8 mph - N/A   Clear
8:24 AM 21.2 °F 14.9 °F 17.6 °F 86% 30.23 in 2.5 mi WSW 4.6 mph - N/A   Clear
8:53 AM 21.0 °F 16.2 °F 19.0 °F 92% 30.27 in 2.5 mi West 3.5 mph - N/A   Clear
9:03 AM 21.2 °F - 19.4 °F 93% 30.24 in 3.0 mi Calm Calm - N/A   Clear
10:53 AM 28.0 °F 20.8 °F 21.9 °F 78% 30.30 in 5.0 mi WSW 6.9 mph - N/A   Haze
11:53 AM 30.9 °F 22.2 °F 24.1 °F 76% 30.29 in 5.0 mi SW 10.4 mph - N/A   Haze
12:53 PM 30.9 °F 24.3 °F 24.1 °F 76% 30.26 in 5.0 mi SW 6.9 mph - N/A   Haze
2:53 PM 34.0 °F 28.0 °F 26.1 °F 73% 30.26 in 6.0 mi SW 6.9 mph - N/A   Haze
3:53 PM 34.0 °F 28.0 °F 26.1 °F 73% 30.27 in 6.0 mi SSW 6.9 mph - N/A   Haze
4:53 PM 34.0 °F 27.2 °F 26.1 °F 73% 30.27 in 6.0 mi SSW 8.1 mph - N/A   Haze
5:53 PM 30.0 °F 26.5 °F 25.0 °F 82% 30.27 in 7.0 mi SSW 3.5 mph - N/A   Clear
6:53 PM 27.0 °F 19.5 °F 23.0 °F 85% 30.27 in 6.0 mi SSW 6.9 mph - N/A   Clear
7:53 PM 26.1 °F 17.6 °F 21.9 °F 84% 30.27 in 5.0 mi SSW 8.1 mph - N/A   Clear
8:53 PM 26.1 °F 19.4 °F 23.0 °F 88% 30.24 in 5.0 mi SSW 5.8 mph - N/A   Clear
9:53 PM 25.0 °F 18.1 °F 21.9 °F 88% 30.24 in 4.0 mi SSW 5.8 mph - N/A   Clear
10:53 PM 26.1 °F 21.9 °F 21.9 °F 84% 30.22 in 4.0 mi SSW 3.5 mph - N/A   Clear
11:53 PM 25.0 °F 20.7 °F 21.9 °F 88% 30.21 in 4.0 mi SW 3.5 mph - N/A   Clear